Regional Weather Roundup
Issued by NWS Charleston, SC

Current Version | Previous Version | Text Only | Print | Product List | Glossary Off
Versions: 1 2 3 4 5 6 7 8 9 10 11 12 13 14 15 16 17 18 19 20 21 22 23 24 25 26 27 28 29 30 31 32 33 34 35 36 37 38 39 40 41 42 43 44 45 46 47 48 49 50

000
ASUS42 KCHS 230910
RWRCHS
REGIONAL WEATHER ROUNDUP
NATIONAL WEATHER SERVICE CHARLESTON SC
500 AM EDT SAT AUG 23 2014

NOTE: "FAIR" INDICATES FEW OR NO CLOUDS BELOW 12,000 FEET WITH NO
SIGNIFICANT WEATHER AND/OR OBSTRUCTIONS TO VISIBILITY.

NOT ALL STATIONS ARE QUALITY CONTROLLED BY THE NATIONAL
WEATHER SERVICE. USE DATA WITH CAUTION...ESPECIALLY
DEWPOINT OBSERVATIONS.

SCZ027-030-031-034>040-042>050-231000-
...SOUTH CAROLINA...

CITY           SKY/WX    TMP DP  RH WIND       PRES   REMARKS
N CHARLESTON   CLEAR     82  76  81 SW7       29.90F
WATERFRONT PRK   N/A     84 N/A N/A SW6         N/A
FORT JOHNSON   NOT AVBL
MOUNT PLEASANT FAIR      82  79  89 SW3       29.90S HX  93
JOHNS ISLAND   SUNNY     82  79  89 CALM      29.91S HX  93
PINOPOLIS        N/A     82  77  83 SW6       29.82F HX  91
MONCKS CORNER    N/A     79  79 100 CALM      29.90S
SUMMERVILLE    FAIR      77  77 100 SW3       29.91S
BEAUFORT MCAS  CLEAR     79  75  87 W3        29.91F
BEAUFORT ARPT  FAIR      81  77  89 SW3       29.90F
HILTON HEAD IS CLEAR     81  75  83 SW6       29.92F
GEORGETOWN     NOT AVBL
WALTERBORO     SUNNY     79 N/A N/A CALM      29.91S
ORANGEBURG     PTCLDY    75  71  87 SW3       29.91S
BARNWELL       FAIR      73  72  94 CALM      29.92F
AIKEN          FAIR      73  72  94 W5        29.97S
MANNING        FAIR      75 N/A N/A CALM      29.90S
KINGSTREE      NOT AVBL
COLUMBIA       CLEAR     76  71  85 CALM      29.90S
SUMTER         PTCLDY    75  73  93 NE5       29.90R
FLORENCE       MOCLDY    78  74  87 CALM      29.90S
MYRTLE BEACH   PTCLDY    81  75  83 W5        29.89S
N MYRTLE BEACH PTCLDY    79  77  94 CALM      29.89S FOG

$$

GAZ063-065-086>088-099>101-113>116-118-119-134-136>141-150-231000-
...GEORGIA...

CITY           SKY/WX    TMP DP  RH WIND       PRES   REMARKS
SAVANNAH ARPT  CLEAR     80  73  79 CALM      29.93S
HUNTER AAF     CLEAR     78  74  86 CALM      29.90F
FORT STEWART   PTCLDY    77  73  88 CALM      29.92S
STATESBORO     NOT AVBL
SYLVANIA       SUNNY     75  74  97 NW3       29.93F
CLAXTON        FAIR     N/A N/A N/A CALM      29.93F
THOMSON        CLEAR     74  74 100 CALM      29.99S
AUGUSTA-BUSH   CLEAR     73  70  90 CALM      29.92S
AUGUSTA-DANIEL CLEAR     81  70  69 NW7       29.94F
SWAINSBORO     FAIR      77  77 100 NW3       29.95S
VIDALIA          N/A     79  73  83 NW3       29.95S
ALMA           CLEAR     75  72  90 CALM      29.94F
WAYCROSS       CLEAR     79  75  88 CALM      29.94S
JESUP            N/A     77  75  94 CALM      29.93F
BRUNSWICK      CLEAR     79  72  78 W5        29.94S
SAINT SIMONS   CLEAR     80  75  84 W7        29.93F

$$

SCZ027-028-034-036>038-045-046-048>050-GAZ119-141-231000-
...LAKE AND SUPPLEMENTAL COASTAL OBSERVATIONS...

STATION/POSITION TIME  TEMP    WIND        PRES    WAVE   SWELL
                       AIR SEA DIR/SP/G            HT/PER HT/PER/DIR
                 (UTC) (F)     (DEG/KT/KT) (MB)    (FT/S) (FT/S/D)
UPR LAKE MARION  NOT AVBL
WINYAH BAY       0800   82     240/  3     1012.0S
LAKE MURRAY      0800   81      CALM  /  4 1012.5S
ACE BASIN NERRS  0800   80        CALM     1013.0S
FORT PULASKI     0900   81     240/  5/  6 1013.2F
SAPELO ISLAND    0800   82     240/  5     1014.0S

$$

ANZ835-935-AMZ111-154-330-350-352-354-374-450-454-472-231000-
...C-MAN AND BUOY OBSERVATIONS...

STATION/POSITION TIME  TEMP    WIND        PRES    WAVE   SWELL
                       AIR SEA DIR/SP/G            HT/PER HT/PER/DIR
                 (UTC) (F)     (DEG/KT/KT) (MB)    (FT/S) (FT/S/D)
FOLLY BEACH CMAN 0800   84     230/  6/  8 1013.1F
BUOY 41004       0900   85 85  220/ 12/ 16 1011.9F   2/ 4   2/ 9
BUOY 41008       0900   85 85  240/ 12/ 16 1013.2F   2/ 3
5E ST. MARYS GA  0900      83                N/A     1/ 9
FRYING PAN BUOY  NOT AVBL
BUOY 41025       0900   78     350/  8/ 12 1012.5F   2/ 6   2/ 50/ 6
CAPE LOOKOUT NC  0800   81      50/  7/  8 1012.9F
BUOY 41002       0759   82 82  270/ 16/ 17 1013.6F   3/ 4   2/150/ 7
BUOY 41010       0900   84 86  220/  8/  8 1014.9R   2/ 6   2/140/ 6
BUOY 41012       NOT AVBL
ST AUGUSTINE FL  0900   78     260/  6/  7 1014.9F
CAPERS NEARSHORE 0800   85     240/ 14/ 16   N/A
FRIPP NEARSHORE  NOT AVBL


$$


USA.gov is the U.S. government's official web portal to all federal, state and local government web resources and services.